This is the latest recevied weather packets stored in our database for station/object KO4APQ. If no packets are shown the sender has not sent any weather packets the latest 10 day(s).
| Time | Temp. | Humidity | Pressure | Rain* | Wind** | Luminosity | Snow |
|---|---|---|---|---|---|---|---|
| 1778261913 | 20° C | 47% | 1017.4 hPa | 0 mm | - | 1037 W/m² | - |
| 1778261610 | 20° C | 46% | 1017.1 hPa | 0 mm | - | 1132 W/m² | - |
| 1778261306 | 20.56° C | 50% | 1017.2 hPa | 0 mm | - | 288 W/m² | - |
| 1778261003 | 20.56° C | 46% | 1017.2 hPa | 0 mm | - | 1144 W/m² | - |
| 1778260700 | 21.11° C | 46% | 1017.5 hPa | 0 mm | - | 322 W/m² | - |
| 1778260396 | 20.56° C | 46% | 1017.5 hPa | 0 mm | - | 1086 W/m² | - |
| 1778260093 | 20° C | 51% | 1017.6 hPa | 0 mm | - | 1123 W/m² | - |
| 1778259791 | 19.44° C | 53% | 1017.7 hPa | 0 mm | - | 739 W/m² | - |
| 1778259487 | 19.44° C | 53% | 1017.7 hPa | 0 mm | - | 768 W/m² | - |
| 1778259185 | 20° C | 49% | 1017.7 hPa | 0 mm | - | 623 W/m² | - |
| 1778258881 | 19.44° C | 50% | 1017.9 hPa | 0 mm | - | 705 W/m² | - |
| 1778258577 | 18.89° C | 51% | 1018.1 hPa | 0 mm | - | 1031 W/m² | - |
| 1778258275 | 19.44° C | 51% | 1018 hPa | 0 mm | - | 260 W/m² | - |
| 1778257973 | 20° C | 48% | 1018.2 hPa | 0 mm | - | 1149 W/m² | - |
| 1778257668 | 20° C | 47% | 1018.2 hPa | 0 mm | - | 1096 W/m² | - |
| 1778257365 | 19.44° C | 47% | 1018.3 hPa | 0 mm | - | 1058 W/m² | - |
| 1778257063 | 20° C | 52% | 1018.3 hPa | 0 mm | - | 1021 W/m² | - |
| 1778256760 | 19.44° C | 51% | 1018.4 hPa | 0 mm | - | 356 W/m² | - |
| 1778256457 | 19.44° C | 49% | 1018.6 hPa | 0 mm | - | 211 W/m² | - |
| 1778256156 | 19.44° C | 51% | 1018.6 hPa | 0 mm | - | 1025 W/m² | - |
| 1778255852 | 18.33° C | 52% | 1018.6 hPa | 0 mm | - | 1027 W/m² | - |
| 1778255549 | 18.33° C | 52% | 1018.6 hPa | 0 mm | - | 250 W/m² | - |
| 1778255246 | 18.89° C | 51% | 1018.4 hPa | 0 mm | - | 1013 W/m² | - |
| 1778254943 | 18.89° C | 50% | 1018.6 hPa | 0 mm | - | 954 W/m² | - |
| 1778254640 | 19.44° C | 51% | 1018.5 hPa | 0 mm | - | 954 W/m² | - |
* Rain latest hour (hover to see other rain measurements)
** Current wind speed in m/s (hover to see current wind gust speed)